Regional Weather Roundup
Issued by NWS

Home | Current Version | Previous Version | Text Only | Print | Product List | Glossary Off
Versions: 1 2 3 4 5 6 7 8 9 10 11 12 13 14 15 16 17 18 19 20 21 22 23 24 25 26 27 28 29 30 31 32 33 34 35 36 37 38 39 40 41 42 43 44 45 46 47 48 49 50

658
ASUS43 KIND 180359
RWRIN

WEATHER ROUNDUP FOR INDIANA
NATIONAL WEATHER SERVICE INDIANAPOLIS IN
1100 PM EST WED JAN 17 2018

NOTE: "FAIR" INDICATES FEW OR NO CLOUDS BELOW 12,000 FEET WITH NO
SIGNIFICANT WEATHER AND/OR OBSTRUCTIONS TO VISIBILITY.

* - STATION DOES NOT REPORT WEATHER SUCH AS PRECIPITATION OR FOG.

+ - STATION NOT QUALITY CONTROLLED BY THE NATIONAL WEATHER SERVICE.
    USE DATA WITH CAUTION...ESPECIALLY DEWPOINT AND RELATIVE
    HUMIDITY OBSERVATIONS.

INZ001>003-010>013-019-020-180500-
NORTHWEST INDIANA

CITY           SKY/WX    TMP DP  RH WIND       PRES   REMARKS
GARY /AIRPORT/ PTCLDY    18   9  68 SW20G32   30.31S WCI   1
KNOX *+        FAIR      14  10  85 SW15      30.31F WCI  -1
MONTICELLO +   FAIR      13   8  78 SW14      30.36F WCI  -2

$$

LMZ046-743>745-180500-
SOUTHERN LAKE MICHIGAN

STATION/POSITION TIME  TEMP    WIND        PRES    WAVE
                       AIR SEA DIR/SP/G            HT
                 (UTC) (F)     (DEG/KT/KT) (MB)    (FT)
BURNS HARBOR     0340   17     220/ 16/ 24 1026.1F
MICHIGAN CITY    0330   17     210/ 19/ 23   N/A

$$

INZ004-005-014>016-021>024-180500-
NORTH CENTRAL INDIANA

CITY           SKY/WX    TMP DP  RH WIND       PRES   REMARKS
GOSHEN         FAIR      14   8  77 SW22G31   30.28F WCI  -4
PERU/GRISSOM   FAIR      11   7  86 SW13      30.34F WCI  -4
SOUTH BEND     FAIR      13   8  81 SW17G26   30.26F WCI  -4

$$

INZ006>009-017-018-025>027-180500-
NORTHEAST INDIANA

CITY           SKY/WX    TMP DP  RH WIND       PRES   REMARKS
FORT WAYNE     FAIR      13   7  77 SW17      30.31F WCI  -4
KENDALLVILLE + FAIR      13   7  78 SW16      30.26F WCI  -3

$$

INZ028-029-035-036-043>045-051>053-180500-
WEST CENTRAL INDIANA

CITY           SKY/WX    TMP DP  RH WIND       PRES   REMARKS
GREENCASTLE +  FAIR      10   5  79 SW5       30.43F WCI   2
LAFAYETTE      FAIR      12   7  80 SW9       30.38F WCI   0
TERRE HAUTE    FAIR      11   4  73 SW8       30.46F WCI  -1

$$

INZ030>032-037>040-046>048-054>057-064-065-180500-
CENTRAL INDIANA

CITY           SKY/WX    TMP DP  RH WIND       PRES   REMARKS
GREENWOOD *+   FAIR      12   5  75 SW9       30.43F WCI  -1
INDIANAPOLIS   FAIR      10   4  76 SW10      30.41F WCI  -4
-EAGLE CREEK   FAIR      10   4  76 SW8       30.40F WCI  -2
MT COMFORT *+  FAIR      10   7  85 SW12      30.40F WCI  -4
SHELBYVILLE    FAIR       9   2  73 SW9       30.43F WCI  -4

$$

INZ033-034-041-042-049-050-058-059-180500-
EAST CENTRAL INDIANA

CITY           SKY/WX    TMP DP  RH WIND       PRES   REMARKS
MUNCIE         FAIR      14   5  67 SW10      30.37S WCI   1
RICHMOND +     FAIR      12   9  85 SW13      30.38F WCI  -3

$$

INZ060-061-067>069-081>083-085>088-180500-
SOUTHWEST INDIANA

CITY           SKY/WX    TMP DP  RH WIND       PRES   REMARKS
EVANSVILLE     FAIR       7   5  91 CALM      30.55F
HUNTINGBURG +  FAIR       6   3  87 S6        30.54F WCI  -4

$$

INZ062-063-066-070>080-084-089>092-180500-
SOUTH CENTRAL AND SOUTHEAST INDIANA

CITY           SKY/WX    TMP DP  RH WIND       PRES   REMARKS
BLOOMINGTON    FAIR       8   3  80 SW7       30.45F WCI  -3
FRENCH LICK *+ FAIR      10   3  72 CALM      30.50F
MADISON *+     FAIR      12   7  79 SW5       30.49F WCI   4
SEYMOUR +      FAIR      12   5  73 SW8       30.49F WCI   1

$$





USA.gov is the U.S. government's official web portal to all federal, state and local government web resources and services.